Weather History for Little Rock AFB, AR

Change the Weather History Date:

Monday, May 27, 2013

  Actual Average Record
Temperature  
Mean Temperature 74 °F -  
Max Temperature 87 °F 82 °F 94 °F (2012)
Min Temperature 63 °F 59 °F 44 °F (1988)
Cooling Degree Days 10    
Growing Degree Days 24 (Base 50)    
Moisture  
Dew Point 66 °F    
Average Humidity 72    
Maximum Humidity 99    
Minimum Humidity 50    
Precipitation  
Precipitation 0.00 in - - ()
Sea Level Pressure  
Sea Level Pressure 30.00 in    
Wind  
Wind Speed 6 mph (SSE)    
Max Wind Speed 15 mph    
Max Gust Speed 28 mph    
Visibility 10 miles    
Events      
Averages and records for this station are not official NWS values.
T = Trace of Precipitation, MM = Missing Value Source: NWS Daily Summary

Daily Weather History Graph

Daily Weather History Graph

Search for Another Location

Airport:

Trip Planner

Search our weather history database for the weather conditions in past years. The results will help you decide how hot, cold, wet, or windy it might be!

Date:

Astronomy

May. 27, 2013 Rise Set
Actual Time 5:57 AM CDT 8:14 PM CDT
Civil Twilight 5:28 AM CDT 8:43 PM CDT
Nautical Twilight 4:53 AM CDT 9:18 PM CDT
Astronomical Twilight 4:15 AM CDT 9:57 PM CDT
Moon 10:56 PM CDT (5/27) 8:34 AM CDT (5/27)
Length of Visible Light 15h 14m
Length of Day
14h 16m
Waning Gibbous, 91% of the Moon is Illuminated
May 27
Waning Gibbous
May 31
Last Quarter
Jun 8
New
Jun 16
First Quarter
Jun 23
Full

Hourly Weather History & Observations

Time (CDT) Temp. Heat Index Dew Point Humidity Pressure Visibility Wind Dir Wind Speed Gust Speed Precip Events Conditions
12:58 AM 63.9 °F - 63.5 °F 99% 30.06 in 10.0 mi ENE 2.3 mph - N/A   Clear
1:58 AM 64.6 °F - 64.2 °F 99% 30.05 in 10.0 mi East 2.3 mph - N/A   Overcast
2:58 AM 68.2 °F - 65.8 °F 92% 30.04 in 10.0 mi Variable 1.2 mph - N/A   Overcast
3:58 AM 66.6 °F - 66.0 °F 98% 30.03 in 10.0 mi ESE 2.3 mph - N/A   Overcast
4:58 AM 66.6 °F - 66.2 °F 99% 30.03 in 10.0 mi SE 2.3 mph - N/A   Overcast
5:58 AM 67.1 °F - 66.6 °F 98% 30.04 in 10.0 mi Calm Calm - N/A   Mostly Cloudy
6:58 AM 69.3 °F - 66.7 °F 92% 30.06 in 10.0 mi ESE 2.3 mph - N/A   Partly Cloudy
7:58 AM 72.9 °F - 66.9 °F 82% 30.06 in 10.0 mi Variable 4.6 mph - N/A   Clear
8:58 AM 74.3 °F - 68.0 °F 81% 30.05 in 10.0 mi South 10.4 mph - N/A   Clear
9:58 AM 78.3 °F - 69.1 °F 73% 30.04 in 10.0 mi South 13.8 mph 18.4 mph N/A   Partly Cloudy
10:58 AM 79.7 °F - 67.1 °F 65% 30.04 in 10.0 mi SSW 15.0 mph 19.6 mph N/A   Partly Cloudy
11:58 AM 82.0 °F 84.3 °F 66.2 °F 59% 30.03 in 10.0 mi SSW 15.0 mph 27.6 mph N/A   Clear
12:58 PM 83.7 °F 85.8 °F 65.8 °F 55% 30.02 in 10.0 mi South 15.0 mph 18.4 mph N/A   Scattered Clouds
1:58 PM 84.0 °F 86.0 °F 65.7 °F 54% 30.00 in 10.0 mi SSW 15.0 mph 19.6 mph N/A   Scattered Clouds
2:58 PM 85.5 °F 87.4 °F 65.5 °F 51% 29.99 in 10.0 mi South 8.1 mph - N/A   Clear
3:58 PM 86.7 °F 89.0 °F 66.2 °F 50% 29.96 in 10.0 mi South 11.5 mph 18.4 mph N/A   Scattered Clouds
4:58 PM 85.8 °F 87.6 °F 65.5 °F 50% 29.95 in 10.0 mi South 9.2 mph - N/A   Partly Cloudy
5:58 PM 85.1 °F 87.1 °F 65.5 °F 52% 29.93 in 10.0 mi South 10.4 mph - N/A   Clear
6:58 PM 84.0 °F 86.0 °F 65.5 °F 54% 29.93 in 10.0 mi South 6.9 mph - N/A   Clear
7:58 PM 81.1 °F 83.2 °F 65.8 °F 60% 29.93 in 10.0 mi South 5.8 mph - N/A   Clear
8:58 PM 78.4 °F - 65.1 °F 63% 29.93 in 10.0 mi SSE 4.6 mph - N/A   Clear
9:58 PM 77.4 °F - 64.9 °F 65% 29.93 in 10.0 mi South 4.6 mph - N/A   Clear
10:58 PM 75.7 °F - 65.5 °F 70% 29.94 in 10.0 mi SSE 3.5 mph - N/A   Clear
11:58 PM 75.9 °F - 65.7 °F 70% 29.94 in 10.0 mi South 5.8 mph - N/A   Clear